This is the latest recevied weather packets stored in our database for station/object OK1VCF-8. If no packets are shown the sender has not sent any weather packets the latest 10 day(s).
| Time | Temp. | Humidity | Pressure | Rain* | Wind** | Luminosity | Snow |
|---|---|---|---|---|---|---|---|
| 1777647717 | 28.33° C | 24% | 1027.3 hPa | - | - | - | - |
| 1777647276 | 26.67° C | 26% | 1027.5 hPa | - | - | - | - |
| 1777646838 | 25.56° C | 28% | 1027.4 hPa | - | - | - | - |
| 1777646399 | 22.22° C | 32% | 1027.4 hPa | - | - | - | - |
| 1777645795 | 21.11° C | 34% | 1027.8 hPa | - | - | - | - |
| 1777645358 | 20.56° C | 34% | 1027.8 hPa | - | - | - | - |
| 1777644917 | 21.11° C | 34% | 1027.8 hPa | - | - | - | - |
| 1777644480 | 20.56° C | 34% | 1027.8 hPa | - | - | - | - |
| 1777644043 | 20.56° C | 34% | 1028 hPa | - | - | - | - |
| 1777643603 | 20.56° C | 34% | 1028 hPa | - | - | - | - |
| 1777643166 | 20° C | 34% | 1028 hPa | - | - | - | - |
| 1777642727 | 20° C | 34% | 1028 hPa | - | - | - | - |
| 1777642286 | 20° C | 34% | 1028.2 hPa | - | - | - | - |
| 1777641846 | 20° C | 34% | 1028.2 hPa | - | - | - | - |
| 1777641405 | 20° C | 34% | 1028.2 hPa | - | - | - | - |
| 1777640966 | 20° C | 34% | 1028.2 hPa | - | - | - | - |
| 1777640524 | 20° C | 34% | 1028.4 hPa | - | - | - | - |
| 1777640070 | 20° C | 33% | 1028.6 hPa | - | - | - | - |
| 1777639597 | 19.44° C | 34% | 1028.8 hPa | - | - | - | - |
| 1777638937 | 19.44° C | 34% | 1028.7 hPa | - | - | - | - |
| 1777638455 | 18.89° C | 34% | 1029 hPa | - | - | - | - |
| 1777637971 | 18.89° C | 34% | 1029 hPa | - | - | - | - |
| 1777637487 | 18.89° C | 34% | 1029 hPa | - | - | - | - |
| 1777637006 | 18.89° C | 34% | 1029.1 hPa | - | - | - | - |
| 1777636527 | 18.89° C | 34% | 1029.2 hPa | - | - | - | - |
* Rain since midnight (hover to see other rain measurements)
** Current wind speed in m/s (hover to see current wind gust speed)